Find Starlink 32376

NORAD ID: 61707 Int'l Des: 2024-196 Owner: SPXS Country: US Constellation: starlink operational
LEOCIRCULAR

当前视图

正在加载3D地球...

About Starlink 32376

Starlink 32376 (NORAD 61707) is a starlink constellation satellite (v2 mini) launched Oct 30, 2024 by SPXS of US. It operates in LEO, CIRCULAR orbit with a mass of 730.00 kg.

即将过境

Passes for default location (London). Set your location on the main map for personalized predictions.

高度历史

Loading altitude history...

两行轨道根数

1 61707U 24196A 26228.31048102 -.00000516 00000-0 -41494-5 0 9993
2 61707 53.1593 77.9071 0001432 110.8504 249.2652 15.34389367101639
Epoch: Aug 16, 2026 • Age: 13 hours

当前状态

高度 468.1 km
远地点 / 近地点 N/A
速度 7.64 km/s
星下点 52.01°N, 88.34°W
发射日期 Oct 30, 2024
运行时间 1.7 years
类型 internet

技术详情

分类 Payload
质量 730.00 kg
干质量 700.00 kg
总质量 730.00 kg
长度 0.30 m
直径 4.10 m
跨度 29.00 m
形状 Box + pan
制造商 SPXS
平台类型 Starlink V2M
阶段状态 In Orbit
所有者/国家 SPXS/US

Most Searched